QPF
0.00 0.00 0.00 0.00 0.00 0.00 0.00 0.01 0.02 0.02 0.03 0.03 0.03 0.03 0.02 0.02 0.01 0.01 0.01 0.02 0.02 0.02 0.02 0.02 0.01 0.01 0.02 0.02 0.03 0.03 0.02 0.02 0.01 0.01 0.01 0.02 0.02 0.01 0.01 0.01 0.01 0.01 0.01
0.01 0.01 0.00 0.00 0.00 0.00 0.00 0.01 0.02 0.02 0.03 0.03 0.04 0.03 0.03 0.03 0.02 0.01 0.01 0.02 0.04 0.04 0.04 0.05 0.05 0.03 0.02 0.02 0.03 0.03 0.03 0.03 0.02 0.01 0.01 0.02 0.02 0.02 0.02 0.02 0.01 0.01 0.01
0.03 0.03 0.01 0.00 0.00 0.01 0.01 0.02 0.03 0.02 0.02 0.04 0.04 0.03 0.03 0.03 0.03 0.02 0.01 0.02 0.02 0.04 0.05 0.06 0.06 0.05 0.03 0.03 0.03 0.03 0.04 0.03 0.02 0.02 0.01 0.01 0.01 0.02 0.02 0.02 0.02 0.02 0.01
0.03 0.03 0.03 0.02 0.01 0.02 0.02 0.03 0.02 0.02 0.03 0.04 0.04 0.04 0.03 0.02 0.02 0.02 0.02 0.02 0.02 0.02 0.05 0.07 0.07 0.06 0.05 0.04 0.03 0.04 0.05 0.04 0.03 0.03 0.02 0.02 0.02 0.02 0.02 0.02 0.03 0.03 0.02
0.04 0.05 0.05 0.03 0.03 0.03 0.03 0.03 0.03 0.04 0.03 0.04 0.04 0.05 0.04 0.03 0.03 0.02 0.03 0.03 0.03 0.02 0.02 0.04 0.06 0.06 0.06 0.05 0.04 0.05 0.06 0.06 0.05 0.04 0.04 0.04 0.04 0.04 0.03 0.03 0.03 0.03 0.03
0.06 0.06 0.05 0.05 0.04 0.03 0.03 0.03 0.04 0.03 0.03 0.04 0.05 0.05 0.04 0.03 0.03 0.04 0.05 0.03 0.03 0.03 0.02 0.01 0.02 0.04 0.06 0.06 0.06 0.06 0.06 0.07 0.06 0.05 0.05 0.06 0.06 0.05 0.04 0.04 0.04 0.03 0.03
0.06 0.05 0.05 0.04 0.04 0.03 0.04 0.04 0.05 0.03 0.03 0.03 0.04 0.04 0.04 0.03 0.03 0.04 0.04 0.03 0.04 0.03 0.02 0.02 0.02 0.02 0.04 0.04 0.05 0.06 0.06 0.06 0.06 0.06 0.05 0.05 0.04 0.04 0.04 0.04 0.03 0.03 0.03
0.05 0.05 0.05 0.05 0.04 0.05 0.05 0.04 0.04 0.03 0.03 0.03 0.03 0.03 0.02 0.02 0.02 0.03 0.03 0.03 0.04 0.03 0.03 0.03 0.03 0.02 0.02 0.01 0.01 0.03 0.05 0.05 0.05 0.05 0.05 0.04 0.04 0.03 0.02 0.02 0.02 0.02 0.03
0.05 0.04 0.04 0.04 0.04 0.05 0.05 0.03 0.02 0.02 0.03 0.03 0.02 0.02 0.00 0.00 0.01 0.01 0.01 0.02 0.04 0.04 0.04 0.04 0.03 0.02 0.01 0.02 0.01 0.02 0.03 0.03 0.04 0.05 0.05 0.03 0.02 0.02 0.02 0.02 0.02 0.02 0.02
0.04 0.05 0.04 0.04 0.05 0.05 0.04 0.03 0.02 0.02 0.03 0.04 0.03 0.01 0.01 0.00 0.01 0.00 0.01 0.01 0.03 0.03 0.04 0.03 0.03 0.03 0.02 0.02 0.02 0.02 0.02 0.02 0.04 0.05 0.05 0.04 0.04 0.03 0.02 0.03 0.03 0.02 0.03
0.06 0.06 0.06 0.04 0.04 0.05 0.04 0.03 0.03 0.03 0.03 0.03 0.02 0.02 0.02 0.01 0.01 0.01 0.00 0.00 0.01 0.01 0.02 0.03 0.03 0.03 0.02 0.02 0.03 0.03 0.02 0.01 0.03 0.03 0.04 0.04 0.04 0.04 0.03 0.03 0.03 0.04 0.05
0.09 0.07 0.05 0.05 0.04 0.04 0.03 0.04 0.05 0.05 0.04 0.03 0.03 0.02 0.02 0.01 0.01 0.01 0.00 0.00 0.00 0.00 0.01 0.02 0.02 0.02 0.02 0.02 0.02 0.02 0.02 0.03 0.03 0.01 0.01 0.02 0.02 0.03 0.03 0.02 0.03 0.04 0.05
0.06 0.06 0.05 0.04 0.03 0.03 0.04 0.05 0.05 0.03 0.03 0.02 0.03 0.02 0.02 0.01 0.01 0.00 0.00 0.00 0.00 0.00 0.00 0.01 0.01 0.01 0.02 0.02 0.02 0.02 0.02 0.04 0.03 0.02 0.01 0.01 0.02 0.02 0.02 0.02 0.02 0.02 0.02
0.06 0.07 0.07 0.05 0.05 0.05 0.05 0.05 0.03 0.03 0.03 0.02 0.02 0.03 0.03 0.02 0.02 0.02 0.01 0.01 0.00 0.00 0.00 0.00 0.00 0.00 0.01 0.01 0.01 0.02 0.02 0.04 0.03 0.03 0.02 0.02 0.01 0.01 0.01 0.01 0.01 0.01 0.01
0.08 0.08 0.07 0.07 0.06 0.06 0.05 0.05 0.04 0.04 0.04 0.03 0.03 0.04 0.04 0.03 0.03 0.02 0.02 0.02 0.01 0.00 0.00 0.00 0.01 0.00 0.01 0.01 0.02 0.02 0.02 0.03 0.03 0.03 0.02 0.01 0.02 0.01 0.01 0.01 0.01 0.01 0.01
0.10 0.09 0.09 0.08 0.07 0.06 0.05 0.06 0.05 0.05 0.04 0.03 0.04 0.04 0.03 0.03 0.03 0.03 0.03 0.03 0.02 0.02 0.01 0.01 0.01 0.01 0.01 0.03 0.03 0.02 0.03 0.03 0.03 0.03 0.02 0.02 0.02 0.02 0.02 0.02 0.01 0.01 0.01
0.09 0.08 0.09 0.09 0.07 0.06 0.07 0.07 0.05 0.06 0.04 0.04 0.05 0.04 0.04 0.04 0.04 0.04 0.04 0.03 0.03 0.03 0.02 0.02 0.02 0.02 0.02 0.03 0.03 0.03 0.03 0.03 0.03 0.03 0.02 0.02 0.02 0.01 0.01 0.01 0.01 0.01 0.01
0.11 0.10 0.09 0.08 0.07 0.06 0.07 0.08 0.07 0.07 0.06 0.05 0.05 0.05 0.04 0.04 0.04 0.05 0.06 0.06 0.05 0.05 0.04 0.04 0.04 0.03 0.02 0.02 0.03 0.03 0.03 0.03 0.03 0.03 0.03 0.02 0.02 0.01 0.01 0.01 0.01 0.01 0.01
0.12 0.09 0.07 0.06 0.07 0.07 0.07 0.07 0.07 0.08 0.09 0.09 0.09 0.10 0.09 0.07 0.04 0.05 0.05 0.06 0.07 0.07 0.07 0.07 0.06 0.05 0.05 0.05 0.06 0.06 0.06 0.06 0.06 0.06 0.06 0.05 0.04 0.03 0.03 0.03 0.03 0.03 0.02
0.09 0.09 0.07 0.08 0.10 0.10 0.10 0.09 0.08 0.09 0.11 0.11 0.10 0.10 0.10 0.09 0.07 0.06 0.05 0.06 0.07 0.08 0.08 0.09 0.09 0.08 0.08 0.08 0.09 0.10 0.10 0.09 0.08 0.08 0.07 0.06 0.06 0.06 0.05 0.05 0.04 0.04 0.03
0.06 0.08 0.09 0.10 0.11 0.11 0.10 0.11 0.11 0.11 0.12 0.11 0.11 0.11 0.11 0.12 0.11 0.10 0.09 0.08 0.09 0.08 0.08 0.08 0.09 0.09 0.09 0.08 0.09 0.10 0.10 0.10 0.10 0.09 0.07 0.08 0.08 0.07 0.06 0.05 0.04 0.04 0.03
0.07 0.08 0.10 0.11 0.11 0.12 0.14 0.13 0.13 0.15 0.17 0.18 0.17 0.16 0.16 0.16 0.16 0.15 0.15 0.15 0.16 0.16 0.16 0.14 0.13 0.12 0.12 0.11 0.10 0.08 0.08 0.07 0.07 0.06 0.06 0.06 0.05 0.05 0.04 0.03 0.03 0.02 0.02
0.05 0.07 0.09 0.09 0.09 0.09 0.10 0.12 0.14 0.13 0.13 0.14 0.14 0.13 0.13 0.16 0.15 0.14 0.15 0.16 0.15 0.15 0.12 0.10 0.09 0.08 0.07 0.07 0.07 0.07 0.07 0.06 0.07 0.06 0.06 0.06 0.04 0.04 0.03 0.02 0.02 0.01 0.01
0.02 0.04 0.06 0.06 0.06 0.06 0.07 0.08 0.11 0.12 0.12 0.12 0.12 0.12 0.14 0.14 0.13 0.12 0.12 0.11 0.08 0.07 0.05 0.04 0.04 0.04 0.04 0.04 0.05 0.06 0.06 0.06 0.06 0.06 0.06 0.07 0.06 0.05 0.04 0.04 0.04 0.03 0.02
0.02 0.02 0.04 0.07 0.08 0.10 0.11 0.12 0.13 0.14 0.16 0.18 0.18 0.17 0.16 0.15 0.16 0.13 0.10 0.08 0.06 0.06 0.05 0.05 0.05 0.04 0.04 0.04 0.06 0.06 0.07 0.07 0.08 0.09 0.08 0.09 0.08 0.07 0.06 0.05 0.03 0.03 0.03
0.02 0.02 0.02 0.04 0.06 0.07 0.09 0.10 0.11 0.11 0.12 0.12 0.13 0.15 0.16 0.15 0.15 0.14 0.13 0.13 0.11 0.09 0.07 0.06 0.06 0.05 0.04 0.04 0.04 0.04 0.05 0.06 0.07 0.08 0.07 0.07 0.06 0.06 0.06 0.05 0.04 0.04 0.03
MSLP
1018.98 1019.12 1019.22 1019.30 1019.39 1019.52 1019.69 1019.90 1020.12 1020.33 1020.52 1020.67 1020.78 1020.86 1020.94 1021.04 1021.17 1021.35 1021.56 1021.80 1022.04 1022.26 1022.46 1022.63 1022.77 1022.89 1023.01 1023.13 1023.25 1023.39 1023.52 1023.66 1023.80 1023.93 1024.07 1024.20 1024.33 1024.46 1024.57 1024.66 1024.72 1024.75 1024.74
1019.02 1019.17 1019.28 1019.38 1019.48 1019.62 1019.79 1020.00 1020.22 1020.45 1020.65 1020.82 1020.96 1021.05 1021.14 1021.22 1021.31 1021.44 1021.60 1021.78 1021.99 1022.20 1022.41 1022.61 1022.80 1022.97 1023.13 1023.28 1023.41 1023.54 1023.65 1023.76 1023.87 1023.99 1024.11 1024.24 1024.38 1024.51 1024.63 1024.72 1024.78 1024.80 1024.78
1018.99 1019.16 1019.30 1019.44 1019.57 1019.73 1019.92 1020.14 1020.38 1020.62 1020.84 1021.03 1021.18 1021.30 1021.38 1021.44 1021.51 1021.58 1021.67 1021.79 1021.94 1022.12 1022.32 1022.53 1022.75 1022.97 1023.17 1023.35 1023.51 1023.64 1023.75 1023.84 1023.93 1024.02 1024.12 1024.24 1024.37 1024.51 1024.63 1024.72 1024.78 1024.79 1024.77
1018.89 1019.09 1019.28 1019.47 1019.66 1019.86 1020.08 1020.31 1020.56 1020.81 1021.05 1021.25 1021.43 1021.56 1021.65 1021.70 1021.73 1021.75 1021.78 1021.83 1021.92 1022.04 1022.21 1022.41 1022.64 1022.88 1023.12 1023.33 1023.51 1023.66 1023.76 1023.85 1023.92 1023.99 1024.08 1024.19 1024.31 1024.43 1024.54 1024.63 1024.69 1024.71 1024.69
1018.72 1018.96 1019.21 1019.45 1019.70 1019.95 1020.20 1020.46 1020.72 1020.97 1021.22 1021.44 1021.63 1021.78 1021.89 1021.94 1021.96 1021.94 1021.92 1021.90 1021.91 1021.97 1022.09 1022.25 1022.47 1022.71 1022.96 1023.19 1023.39 1023.55 1023.67 1023.75 1023.82 1023.88 1023.96 1024.05 1024.16 1024.27 1024.37 1024.45 1024.50 1024.51 1024.50
1018.50 1018.76 1019.05 1019.36 1019.66 1019.96 1020.25 1020.52 1020.78 1021.04 1021.28 1021.52 1021.73 1021.91 1022.04 1022.12 1022.14 1022.11 1022.05 1021.98 1021.92 1021.91 1021.96 1022.07 1022.25 1022.46 1022.70 1022.94 1023.15 1023.32 1023.45 1023.54 1023.61 1023.68 1023.75 1023.84 1023.93 1024.03 1024.12 1024.18 1024.21 1024.22 1024.19
1018.22 1018.49 1018.82 1019.17 1019.52 1019.85 1020.16 1020.44 1020.71 1020.96 1021.20 1021.45 1021.69 1021.90 1022.07 1022.19 1022.24 1022.22 1022.14 1022.03 1021.93 1021.85 1021.83 1021.87 1021.99 1022.16 1022.37 1022.58 1022.79 1022.96 1023.11 1023.22 1023.31 1023.39 1023.48 1023.56 1023.66 1023.74 1023.81 1023.86 1023.87 1023.85 1023.81
1017.89 1018.16 1018.50 1018.87 1019.25 1019.61 1019.93 1020.22 1020.47 1020.72 1020.97 1021.22 1021.48 1021.73 1021.96 1022.12 1022.21 1022.22 1022.16 1022.04 1021.90 1021.78 1021.69 1021.67 1021.71 1021.83 1021.98 1022.17 1022.36 1022.53 1022.69 1022.82 1022.94 1023.05 1023.16 1023.26 1023.36 1023.45 1023.50 1023.53 1023.51 1023.46 1023.40
1017.53 1017.78 1018.11 1018.49 1018.88 1019.25 1019.57 1019.86 1020.11 1020.34 1020.59 1020.85 1021.14 1021.43 1021.70 1021.92 1022.06 1022.12 1022.09 1021.98 1021.84 1021.68 1021.55 1021.47 1021.45 1021.50 1021.61 1021.75 1021.91 1022.07 1022.24 1022.39 1022.54 1022.69 1022.83 1022.97 1023.09 1023.19 1023.24 1023.25 1023.21 1023.13 1023.04
1017.15 1017.37 1017.69 1018.05 1018.44 1018.80 1019.13 1019.41 1019.65 1019.88 1020.13 1020.40 1020.70 1021.02 1021.33 1021.60 1021.80 1021.91 1021.92 1021.85 1021.71 1021.55 1021.40 1021.29 1021.22 1021.22 1021.28 1021.37 1021.50 1021.65 1021.81 1021.99 1022.17 1022.36 1022.55 1022.73 1022.88 1023.00 1023.06 1023.07 1023.01 1022.91 1022.79
1016.78 1016.97 1017.25 1017.60 1017.97 1018.33 1018.64 1018.92 1019.17 1019.40 1019.64 1019.92 1020.23 1020.57 1020.90 1021.21 1021.45 1021.60 1021.66 1021.63 1021.53 1021.40 1021.26 1021.13 1021.05 1021.02 1021.03 1021.09 1021.19 1021.32 1021.47 1021.66 1021.86 1022.09 1022.33 1022.55 1022.76 1022.91 1022.99 1023.01 1022.95 1022.84 1022.70
1016.42 1016.57 1016.83 1017.15 1017.49 1017.83 1018.15 1018.43 1018.67 1018.91 1019.17 1019.45 1019.76 1020.10 1020.45 1020.77 1021.03 1021.22 1021.33 1021.35 1021.30 1021.21 1021.11 1021.01 1020.93 1020.90 1020.89 1020.93 1021.00 1021.10 1021.25 1021.43 1021.66 1021.92 1022.20 1022.47 1022.72 1022.92 1023.04 1023.08 1023.04 1022.93 1022.79
1016.07 1016.19 1016.41 1016.69 1017.00 1017.32 1017.63 1017.91 1018.17 1018.43 1018.69 1018.98 1019.29 1019.63 1019.97 1020.29 1020.57 1020.78 1020.92 1021.00 1021.01 1020.99 1020.95 1020.91 1020.88 1020.86 1020.87 1020.90 1020.95 1021.04 1021.17 1021.35 1021.58 1021.86 1022.17 1022.49 1022.78 1023.02 1023.19 1023.27 1023.26 1023.17 1023.04
1015.72 1015.80 1015.97 1016.19 1016.47 1016.76 1017.05 1017.34 1017.61 1017.89 1018.17 1018.47 1018.79 1019.12 1019.45 1019.77 1020.05 1020.28 1020.46 1020.59 1020.68 1020.74 1020.79 1020.83 1020.87 1020.91 1020.95 1020.99 1021.04 1021.12 1021.24 1021.41 1021.64 1021.93 1022.26 1022.61 1022.94 1023.23 1023.45 1023.56 1023.59 1023.53 1023.43
1015.36 1015.39 1015.48 1015.63 1015.84 1016.09 1016.36 1016.64 1016.93 1017.23 1017.54 1017.86 1018.20 1018.53 1018.86 1019.17 1019.46 1019.71 1019.93 1020.13 1020.31 1020.47 1020.63 1020.77 1020.91 1021.03 1021.12 1021.20 1021.27 1021.35 1021.46 1021.62 1021.85 1022.13 1022.48 1022.85 1023.21 1023.53 1023.79 1023.95 1024.01 1023.99 1023.91
1014.98 1014.92 1014.91 1014.96 1015.09 1015.27 1015.50 1015.77 1016.08 1016.40 1016.75 1017.11 1017.47 1017.83 1018.17 1018.50 1018.81 1019.09 1019.37 1019.64 1019.91 1020.19 1020.47 1020.74 1020.99 1021.20 1021.38 1021.51 1021.62 1021.71 1021.82 1021.98 1022.19 1022.48 1022.82 1023.20 1023.58 1023.93 1024.21 1024.40 1024.49 1024.50 1024.44
1014.58 1014.39 1014.25 1014.19 1014.20 1014.29 1014.47 1014.72 1015.02 1015.38 1015.77 1016.18 1016.59 1017.00 1017.39 1017.75 1018.10 1018.45 1018.79 1019.15 1019.53 1019.93 1020.34 1020.74 1021.11 1021.43 1021.70 1021.90 1022.06 1022.18 1022.31 1022.47 1022.68 1022.96 1023.29 1023.67 1024.05 1024.41 1024.70 1024.90 1025.01 1025.03 1024.98
1014.17 1013.84 1013.55 1013.34 1013.22 1013.21 1013.32 1013.53 1013.83 1014.22 1014.66 1015.13 1015.61 1016.08 1016.54 1016.98 1017.41 1017.83 1018.27 1018.73 1019.22 1019.74 1020.27 1020.80 1021.29 1021.72 1022.08 1022.36 1022.57 1022.73 1022.88 1023.05 1023.26 1023.54 1023.86 1024.23 1024.61 1024.95 1025.24 1025.44 1025.54 1025.55 1025.50
1013.79 1013.31 1012.87 1012.51 1012.26 1012.14 1012.16 1012.33 1012.62 1013.03 1013.51 1014.05 1014.61 1015.18 1015.73 1016.27 1016.79 1017.32 1017.86 1018.43 1019.04 1019.67 1020.32 1020.95 1021.55 1022.07 1022.52 1022.86 1023.13 1023.33 1023.51 1023.69 1023.91 1024.17 1024.49 1024.84 1025.20 1025.53 1025.79 1025.97 1026.05 1026.04 1025.96
1013.51 1012.89 1012.30 1011.80 1011.43 1011.20 1011.15 1011.27 1011.55 1011.97 1012.50 1013.10 1013.75 1014.41 1015.07 1015.71 1016.35 1016.99 1017.64 1018.32 1019.03 1019.76 1020.50 1021.22 1021.90 1022.50 1023.00 1023.40 1023.70 1023.94 1024.14 1024.34 1024.56 1024.82 1025.12 1025.46 1025.79 1026.09 1026.32 1026.46 1026.51 1026.46 1026.35
1013.37 1012.63 1011.94 1011.34 1010.87 1010.57 1010.45 1010.53 1010.79 1011.21 1011.77 1012.42 1013.14 1013.89 1014.65 1015.41 1016.15 1016.90 1017.66 1018.44 1019.23 1020.04 1020.85 1021.62 1022.34 1022.98 1023.51 1023.94 1024.27 1024.53 1024.74 1024.94 1025.16 1025.42 1025.71 1026.02 1026.32 1026.59 1026.78 1026.89 1026.90 1026.81 1026.66
1013.42 1012.63 1011.89 1011.24 1010.71 1010.36 1010.20 1010.24 1010.47 1010.89 1011.46 1012.15 1012.92 1013.74 1014.58 1015.42 1016.26 1017.10 1017.95 1018.80 1019.65 1020.51 1021.35 1022.14 1022.87 1023.51 1024.05 1024.48 1024.81 1025.07 1025.28 1025.48 1025.69 1025.93 1026.20 1026.48 1026.76 1026.99 1027.15 1027.22 1027.19 1027.07 1026.88
1013.71 1012.93 1012.19 1011.54 1011.02 1010.65 1010.46 1010.48 1010.69 1011.08 1011.65 1012.34 1013.13 1013.98 1014.87 1015.77 1016.68 1017.58 1018.48 1019.37 1020.26 1021.13 1021.96 1022.75 1023.46 1024.07 1024.58 1024.99 1025.30 1025.54 1025.74 1025.92 1026.12 1026.34 1026.59 1026.84 1027.09 1027.29 1027.42 1027.46 1027.40 1027.25 1027.03
1014.24 1013.54 1012.87 1012.28 1011.80 1011.45 1011.26 1011.26 1011.44 1011.80 1012.33 1013.00 1013.77 1014.62 1015.52 1016.44 1017.37 1018.29 1019.21 1020.11 1020.99 1021.84 1022.65 1023.40 1024.06 1024.63 1025.10 1025.47 1025.74 1025.96 1026.13 1026.29 1026.46 1026.66 1026.87 1027.10 1027.32 1027.49 1027.60 1027.61 1027.54 1027.37 1027.13
1015.01 1014.44 1013.89 1013.39 1012.98 1012.68 1012.51 1012.50 1012.65 1012.96 1013.44 1014.05 1014.77 1015.58 1016.44 1017.34 1018.25 1019.16 1020.05 1020.93 1021.78 1022.59 1023.35 1024.04 1024.65 1025.17 1025.59 1025.91 1026.15 1026.33 1026.48 1026.61 1026.75 1026.92 1027.11 1027.30 1027.49 1027.64 1027.72 1027.73 1027.64 1027.46 1027.21
1015.97 1015.55 1015.15 1014.78 1014.46 1014.21 1014.07 1014.05 1014.17 1014.43 1014.84 1015.37 1016.02 1016.75 1017.55 1018.38 1019.24 1020.09 1020.94 1021.76 1022.55 1023.31 1024.01 1024.64 1025.20 1025.66 1026.04 1026.32 1026.54 1026.69 1026.81 1026.93 1027.04 1027.18 1027.34 1027.50 1027.65 1027.78 1027.84 1027.83 1027.74 1027.56 1027.30
Thickness
5732 5731 5731 5731 5731 5730 5730 5729 5728 5727 5727 5726 5725 5725 5723 5722 5721 5720 5719 5718 5717 5716 5714 5713 5712 5710 5709 5707 5706 5705 5704 5703 5702 5701 5700 5699 5697 5696 5695 5694 5694 5693 5692
5730 5730 5729 5729 5729 5729 5729 5728 5727 5726 5726 5725 5725 5724 5723 5722 5720 5720 5719 5718 5716 5715 5714 5712 5711 5709 5708 5707 5705 5704 5703 5703 5701 5700 5699 5698 5697 5696 5695 5694 5693 5692 5691
5729 5729 5728 5728 5728 5728 5728 5727 5726 5725 5725 5724 5724 5723 5722 5721 5720 5719 5718 5717 5716 5715 5714 5712 5711 5709 5708 5707 5705 5704 5703 5702 5701 5700 5699 5698 5696 5695 5694 5693 5692 5691 5690
5728 5727 5727 5727 5728 5727 5727 5726 5725 5724 5723 5722 5722 5722 5721 5720 5719 5719 5718 5717 5716 5715 5714 5712 5711 5709 5708 5707 5705 5704 5703 5702 5701 5700 5699 5697 5696 5695 5694 5693 5692 5691 5690
5728 5727 5727 5727 5727 5726 5726 5725 5724 5723 5721 5720 5720 5720 5719 5719 5719 5718 5717 5717 5716 5715 5714 5712 5711 5709 5708 5707 5706 5705 5704 5703 5702 5700 5699 5698 5696 5695 5694 5693 5692 5691 5690
5728 5727 5726 5726 5726 5726 5725 5724 5723 5722 5720 5720 5719 5718 5717 5718 5718 5718 5717 5717 5716 5715 5714 5712 5711 5710 5709 5708 5707 5706 5704 5703 5702 5701 5699 5698 5697 5695 5694 5693 5692 5690 5689
5728 5727 5727 5726 5726 5726 5725 5724 5722 5720 5718 5718 5716 5714 5715 5717 5717 5717 5717 5717 5716 5715 5714 5713 5711 5710 5709 5708 5707 5706 5705 5704 5702 5701 5700 5698 5696 5695 5693 5692 5691 5690 5689
5728 5727 5727 5727 5726 5726 5724 5723 5722 5719 5718 5718 5715 5710 5708 5710 5714 5717 5717 5717 5717 5715 5715 5714 5712 5711 5710 5709 5708 5707 5705 5704 5702 5701 5699 5698 5696 5694 5693 5692 5691 5690 5689
5729 5729 5728 5727 5727 5726 5724 5723 5723 5720 5717 5716 5717 5713 5707 5704 5709 5713 5716 5717 5717 5716 5715 5714 5713 5712 5711 5709 5708 5707 5706 5704 5703 5701 5699 5697 5695 5694 5692 5691 5690 5689 5687
5730 5729 5729 5728 5727 5726 5726 5725 5724 5722 5720 5716 5715 5716 5715 5713 5708 5706 5711 5714 5715 5714 5714 5714 5713 5712 5711 5710 5708 5707 5705 5704 5702 5700 5698 5696 5694 5692 5691 5689 5688 5687 5685
5730 5730 5729 5728 5728 5727 5726 5726 5724 5723 5721 5719 5716 5715 5713 5712 5711 5707 5705 5708 5710 5712 5712 5712 5711 5711 5710 5709 5708 5707 5705 5703 5701 5699 5696 5694 5692 5690 5688 5687 5685 5684 5683
5729 5729 5729 5728 5727 5727 5726 5725 5724 5723 5721 5720 5719 5717 5715 5712 5710 5707 5704 5704 5705 5707 5709 5709 5709 5709 5708 5708 5706 5705 5703 5701 5698 5696 5694 5691 5689 5687 5685 5683 5681 5680 5679
5728 5729 5728 5728 5727 5727 5726 5725 5724 5722 5721 5720 5719 5717 5717 5716 5714 5710 5706 5703 5702 5703 5705 5706 5706 5706 5705 5705 5704 5702 5700 5698 5696 5693 5690 5688 5686 5683 5681 5679 5677 5675 5673
5730 5729 5728 5727 5727 5727 5726 5724 5723 5722 5720 5719 5718 5717 5716 5715 5714 5711 5708 5703 5698 5698 5699 5700 5702 5702 5702 5701 5700 5698 5696 5694 5691 5689 5686 5683 5681 5678 5676 5674 5672 5669 5667
5729 5728 5727 5726 5726 5726 5725 5723 5721 5721 5720 5718 5717 5715 5714 5713 5712 5711 5709 5707 5701 5694 5693 5695 5696 5697 5696 5695 5694 5693 5691 5689 5686 5684 5681 5678 5675 5672 5670 5667 5665 5662 5660
5728 5727 5726 5725 5724 5724 5723 5722 5720 5719 5718 5716 5715 5713 5711 5710 5709 5707 5706 5704 5702 5698 5691 5691 5690 5690 5690 5690 5688 5686 5684 5682 5680 5677 5674 5671 5668 5665 5662 5660 5657 5654 5651
5727 5726 5724 5723 5723 5722 5721 5719 5718 5717 5715 5713 5712 5710 5708 5707 5706 5704 5702 5700 5698 5695 5689 5686 5684 5683 5682 5681 5680 5678 5676 5674 5671 5669 5666 5663 5660 5657 5654 5651 5648 5644 5641
5726 5724 5723 5721 5720 5720 5718 5717 5715 5714 5712 5710 5708 5706 5704 5703 5701 5699 5698 5696 5694 5691 5687 5681 5677 5675 5674 5673 5671 5670 5667 5665 5662 5659 5657 5654 5650 5647 5644 5641 5637 5634 5630
5724 5723 5721 5719 5718 5717 5715 5714 5712 5711 5709 5707 5705 5702 5700 5698 5696 5695 5693 5691 5689 5687 5683 5678 5672 5668 5665 5664 5662 5659 5656 5654 5652 5649 5646 5642 5639 5636 5632 5629 5625 5622 5619
5722 5720 5719 5717 5715 5713 5711 5710 5708 5707 5705 5703 5700 5698 5697 5695 5692 5690 5688 5685 5683 5679 5675 5671 5666 5661 5657 5655 5653 5649 5645 5642 5639 5637 5633 5630 5626 5623 5620 5617 5613 5610 5606
5718 5716 5714 5713 5711 5709 5707 5705 5704 5702 5700 5697 5694 5692 5691 5689 5687 5686 5683 5680 5676 5672 5667 5662 5657 5652 5649 5646 5643 5640 5635 5631 5626 5623 5620 5616 5613 5610 5606 5603 5600 5596 5592
5714 5712 5710 5708 5706 5705 5703 5701 5699 5696 5693 5690 5687 5684 5682 5680 5679 5677 5674 5671 5669 5664 5659 5654 5649 5645 5641 5637 5634 5631 5626 5622 5616 5610 5608 5603 5599 5595 5591 5588 5585 5582 5578
5709 5707 5704 5702 5700 5698 5697 5695 5693 5690 5686 5683 5681 5678 5675 5672 5670 5667 5663 5660 5657 5654 5651 5648 5642 5637 5632 5629 5625 5620 5615 5611 5604 5598 5595 5590 5585 5581 5577 5574 5571 5567 5563
5702 5700 5698 5696 5694 5691 5690 5688 5685 5682 5678 5675 5672 5670 5666 5662 5660 5658 5653 5648 5643 5640 5639 5636 5631 5626 5622 5618 5615 5610 5604 5597 5591 5586 5583 5577 5571 5567 5563 5558 5555 5552 5548
5695 5693 5691 5688 5686 5683 5681 5680 5678 5674 5669 5665 5661 5659 5656 5653 5649 5647 5643 5636 5630 5625 5622 5620 5616 5612 5608 5605 5601 5597 5592 5588 5580 5572 5566 5563 5556 5552 5548 5543 5540 5536 5533
5687 5685 5682 5680 5678 5675 5672 5671 5670 5666 5661 5655 5651 5648 5645 5642 5638 5635 5631 5626 5619 5612 5609 5606 5601 5597 5593 5589 5586 5582 5578 5573 5567 5559 5552 5548 5542 5538 5535 5529 5525 5521 5518